When you browse on this site, cookies collect data to enhance your experience and personalize the content and advertising you see.
Visit our Privacy Policy to learn more. By continuing to use the site, you agree to this use of cookies and data.
  • In Österreich
  • Länderverzeichnis
  • Für 7 Tage
  • Wassertemperatur
  • Satellitenkarten
  • Wetterkarte
  • News
  • Widgets
  • user-avatar
    Anmelden

    Stündliche Wetter Sztok

    Heute, 21 März, Donnerstag

    Zeit Temperatur Niederschläge Wind Luftdruck Luftfeuchtigkeit
    00:00 +5°C° 0 mm 5 m/S 759 mmHg 69%
    01:00 +5°C° 0 mm 5 m/S 759 mmHg 73%
    02:00 +5°C° 0 mm 5 m/S 759 mmHg 78%
    03:00 +5°C° 0 mm 5 m/S 759 mmHg 83%
    04:00 +5°C° 0 mm 4 m/S 759 mmHg 89%
    05:00 +5°C° 0 mm 4 m/S 759 mmHg 90%
    06:00 +5°C° 0 mm 3 m/S 760 mmHg 91%
    07:00 +5°C° 0 mm 3 m/S 760 mmHg 92%
    08:00 +6°C° 0 mm 4 m/S 760 mmHg 86%
    09:00 +7°C° 0 mm 4 m/S 760 mmHg 80%
    10:00 +8°C° 0 mm 5 m/S 760 mmHg 74%
    11:00 +9°C° 0 mm 5 m/S 760 mmHg 70%
    12:00 +10°C° 0 mm 5 m/S 760 mmHg 67%
    13:00 +10°C° 0 mm 5 m/S 760 mmHg 63%
    14:00 +12°C° 0 mm 5 m/S 760 mmHg 65%
    15:00 +12°C° 0 mm 5 m/S 759 mmHg 67%
    16:00 +12°C° 0 mm 5 m/S 759 mmHg 69%
    17:00 +10°C° 0 mm 5 m/S 759 mmHg 73%
    18:00 +10°C° 0 mm 5 m/S 759 mmHg 77%
    19:00 +9°C° 0 mm 5 m/S 759 mmHg 81%
    20:00 +9°C° 0 mm 5 m/S 759 mmHg 83%
    21:00 +8°C° 0 mm 5 m/S 759 mmHg 85%
    22:00 +8°C° 0 mm 5 m/S 759 mmHg 88%
    23:00 +8°C° 0 mm 5 m/S 759 mmHg 88%

    Morgen, 22 März, Freitag

    Zeit Temperatur Niederschläge Wind Luftdruck Luftfeuchtigkeit
    00:00 +8°C° 0 mm 4 m/S 759 mmHg 89%
    01:00 +8°C° 0 mm 4 m/S 759 mmHg 89%
    02:00 +8°C° 0 mm 4 m/S 759 mmHg 90%
    03:00 +8°C° 0 mm 4 m/S 759 mmHg 91%
    04:00 +7°C° 0 mm 4 m/S 759 mmHg 92%
    05:00 +7°C° 0 mm 4 m/S 759 mmHg 92%
    06:00 +7°C° 0 mm 4 m/S 760 mmHg 92%
    07:00 +7°C° 0 mm 4 m/S 760 mmHg 91%
    08:00 +8°C° 0 mm 4 m/S 760 mmHg 88%
    09:00 +8°C° 0 mm 4 m/S 760 mmHg 86%
    10:00 +10°C° 0 mm 3 m/S 761 mmHg 83%
    11:00 +11°C° 0 mm 3 m/S 761 mmHg 77%
    12:00 +13°C° 0 mm 2 m/S 761 mmHg 72%
    13:00 +13°C° 0 mm 2 m/S 761 mmHg 66%
    14:00 +13°C° 0 mm 2 m/S 761 mmHg 66%
    15:00 +13°C° 0 mm 1 m/S 760 mmHg 66%
    16:00 +13°C° 0 mm 1 m/S 760 mmHg 67%
    17:00 +12°C° 0 mm 1 m/S 760 mmHg 71%
    18:00 +10°C° 0 mm 1 m/S 760 mmHg 75%
    19:00 +8°C° 0 mm 0 m/S 760 mmHg 80%
    20:00 +9°C° 0 mm 1 m/S 760 mmHg 82%
    21:00 +9°C° 0 mm 1 m/S 760 mmHg 84%
    22:00 +8°C° 0 mm 1 m/S 759 mmHg 86%
    23:00 +8°C° 0 mm 1 m/S 759 mmHg 88%

    übermorgen, 23 März, Samstag

    Zeit Temperatur Niederschläge Wind Luftdruck Luftfeuchtigkeit
    00:00 +8°C° 0 mm 1 m/S 759 mmHg 89%
    01:00 +6°C° 0 mm 2 m/S 759 mmHg 91%
    02:00 +6°C° 0 mm 2 m/S 759 mmHg 92%
    03:00 +6°C° 0 mm 2 m/S 758 mmHg 93%
    04:00 +6°C° 0 mm 2 m/S 758 mmHg 94%
    05:00 +6°C° 0 mm 2 m/S 758 mmHg 94%
    06:00 +6°C° 0 mm 2 m/S 757 mmHg 94%
    07:00 +7°C° 0 mm 2 m/S 757 mmHg 95%
    08:00 +9°C° 0 mm 2 m/S 757 mmHg 88%
    09:00 +11°C° 0 mm 3 m/S 757 mmHg 81%
    10:00 +13°C° 0 mm 3 m/S 757 mmHg 74%
    11:00 +14°C° 0 mm 4 m/S 756 mmHg 69%
    12:00 +15°C° 0 mm 4 m/S 756 mmHg 65%
    13:00 +17°C° 0 mm 4 m/S 755 mmHg 61%
    14:00 +17°C° 0.1 mm 4 m/S 755 mmHg 60%
    15:00 +17°C° 0.1 mm 4 m/S 755 mmHg 59%
    16:00 +16°C° 0.1 mm 5 m/S 754 mmHg 58%
    17:00 +15°C° 0.1 mm 4 m/S 755 mmHg 65%
    18:00 +13°C° 0.1 mm 4 m/S 755 mmHg 72%
    19:00 +12°C° 0.1 mm 4 m/S 755 mmHg 79%
    20:00 +11°C° 0 mm 4 m/S 755 mmHg 81%
    21:00 +8°C° 0 mm 4 m/S 756 mmHg 84%
    22:00 +7°C° 0 mm 4 m/S 756 mmHg 86%
    23:00 +6°C° 0 mm 4 m/S 756 mmHg 79%

    24 März, Sonntag

    Zeit Temperatur Niederschläge Wind Luftdruck Luftfeuchtigkeit
    00:00 +5°C° 0 mm 4 m/S 756 mmHg 73%
    01:00 +4°C° 0 mm 4 m/S 757 mmHg 66%
    02:00 +4°C° 0 mm 4 m/S 757 mmHg 69%
    03:00 +3°C° 0 mm 4 m/S 757 mmHg 73%
    04:00 +2°C° 0 mm 3 m/S 757 mmHg 76%
    05:00 +2°C° 0 mm 3 m/S 757 mmHg 76%
    06:00 +2°C° 0 mm 3 m/S 758 mmHg 76%
    07:00 +2°C° 0 mm 3 m/S 758 mmHg 76%
    08:00 +4°C° 0 mm 3 m/S 758 mmHg 69%
    09:00 +6°C° 0 mm 2 m/S 758 mmHg 62%
    10:00 +7°C° 0 mm 2 m/S 758 mmHg 55%
    11:00 +8°C° 0 mm 2 m/S 757 mmHg 50%
    12:00 +9°C° 0 mm 2 m/S 757 mmHg 46%
    13:00 +10°C° 0 mm 2 m/S 757 mmHg 41%
    14:00 +10°C° 0 mm 2 m/S 756 mmHg 41%
    15:00 +10°C° 0 mm 2 m/S 756 mmHg 40%
    16:00 +10°C° 0 mm 2 m/S 755 mmHg 40%
    17:00 +9°C° 0 mm 2 m/S 755 mmHg 45%
    18:00 +8°C° 0 mm 2 m/S 755 mmHg 49%
    19:00 +7°C° 0 mm 2 m/S 755 mmHg 53%
    20:00 +6°C° 0 mm 2 m/S 754 mmHg 56%
    21:00 +6°C° 0 mm 2 m/S 754 mmHg 59%
    22:00 +5°C° 0 mm 2 m/S 754 mmHg 62%
    23:00 +5°C° 0 mm 2 m/S 753 mmHg 63%

    25 März, Montag

    Zeit Temperatur Niederschläge Wind Luftdruck Luftfeuchtigkeit
    00:00 +5°C° 0 mm 2 m/S 753 mmHg 64%
    01:00 +4°C° 0 mm 2 m/S 752 mmHg 65%
    02:00 +5°C° 0 mm 1 m/S 752 mmHg 66%
    03:00 +5°C° 0 mm 1 m/S 751 mmHg 67%
    04:00 +5°C° 0 mm 1 m/S 750 mmHg 68%
    05:00 +5°C° 0 mm 1 m/S 750 mmHg 68%
    06:00 +5°C° 0 mm 1 m/S 750 mmHg 68%
    07:00 +5°C° 0 mm 1 m/S 750 mmHg 69%
    08:00 +5°C° 0 mm 2 m/S 749 mmHg 62%
    09:00 +5°C° 0 mm 4 m/S 749 mmHg 56%
    10:00 +7°C° 0 mm 5 m/S 749 mmHg 49%
    11:00 +7°C° 0 mm 5 m/S 748 mmHg 49%
    12:00 +7°C° 0 mm 6 m/S 747 mmHg 48%
    13:00 +8°C° 0 mm 7 m/S 747 mmHg 47%
    14:00 +6°C° 0.2 mm 7 m/S 746 mmHg 51%
    15:00 +6°C° 0.2 mm 8 m/S 745 mmHg 54%
    16:00 +6°C° 0.2 mm 8 m/S 745 mmHg 58%
    17:00 +5°C° 0.4 mm 8 m/S 745 mmHg 61%
    18:00 +4°C° 0.4 mm 7 m/S 744 mmHg 65%
    19:00 +3°C° 0.4 mm 6 m/S 744 mmHg 69%
    20:00 +2°C° 0 mm 6 m/S 744 mmHg 69%
    21:00 +1°C° 0 mm 6 m/S 744 mmHg 70%
    22:00 0°C° 0 mm 5 m/S 744 mmHg 71%
    23:00 -1°C° 0.1 mm 6 m/S 743 mmHg 72%

    26 März, Dienstag

    Zeit Temperatur Niederschläge Wind Luftdruck Luftfeuchtigkeit
    00:00 -1°C° 0.1 mm 7 m/S 742 mmHg 74%
    01:00 0°C° 0.1 mm 7 m/S 742 mmHg 76%
    02:00 -1°C° 0.1 mm 7 m/S 741 mmHg 76%
    03:00 -1°C° 0.1 mm 8 m/S 741 mmHg 76%
    04:00 -1°C° 0.1 mm 8 m/S 741 mmHg 75%
    05:00 -1°C° 0.1 mm 7 m/S 741 mmHg 76%
    06:00 -1°C° 0.1 mm 7 m/S 741 mmHg 77%
    07:00 -1°C° 0.1 mm 7 m/S 741 mmHg 78%
    08:00 0°C° 0.1 mm 7 m/S 742 mmHg 74%
    09:00 0°C° 0.1 mm 8 m/S 743 mmHg 71%
    10:00 +1°C° 0.1 mm 9 m/S 743 mmHg 67%
    11:00 +1°C° 0.2 mm 9 m/S 744 mmHg 66%
    12:00 +1°C° 0.2 mm 9 m/S 745 mmHg 65%
    13:00 0°C° 0.2 mm 10 m/S 745 mmHg 65%
    14:00 0°C° 0.3 mm 10 m/S 746 mmHg 68%
    15:00 0°C° 0.3 mm 10 m/S 746 mmHg 71%
    16:00 -2°C° 0.3 mm 11 m/S 747 mmHg 74%
    17:00 -2°C° 0.6 mm 11 m/S 747 mmHg 77%
    18:00 -3°C° 0.6 mm 11 m/S 748 mmHg 80%
    19:00 -3°C° 0.6 mm 11 m/S 748 mmHg 83%
    20:00 -3°C° 0.2 mm 11 m/S 749 mmHg 84%
    21:00 -3°C° 0.2 mm 11 m/S 749 mmHg 84%
    22:00 -3°C° 0.2 mm 11 m/S 750 mmHg 84%
    23:00 -3°C° 0.3 mm 10 m/S 750 mmHg 85%
    Mehr zeigen